Regional Weather Roundup
Issued by NWS Little Rock, AR

Home | Current Version | Previous Version | Graphics & Text | Print | Product List | Glossary On
Versions: 1 2 3 4 5 6 7 8 9 10 11 12 13 14 15 16 17 18 19 20 21 22 23 24 25 26 27 28 29 30 31 32 33 34 35 36 37 38 39 40 41 42 43 44 45 46 47 48 49 50
000
ASUS44 KLZK 180505
RWRLZK

WEATHER ROUNDUP FOR ARKANSAS
NATIONAL WEATHER SERVICE LITTLE ROCK AR
1200 AM CDT WED OCT 18 2017

NOTE: "FAIR" INDICATES FEW OR NO CLOUDS BELOW 12,000 FEET WITH NO
SIGNIFICANT WEATHER AND/OR OBSTRUCTIONS TO VISIBILITY.

ARZ001-003-010-029-180600-
NORTHWEST ARKANSAS

CITY           SKY/WX    TMP DP  RH WIND       PRES   REMARKS
FAYETTEVILLE   CLEAR     41  41 100 CALM      30.18F
FORT SMITH     CLEAR     52  48  86 NE3       30.18F
HARRISON       CLEAR     48  41  76 SE3       30.20S
BENTONVILLE    CLEAR     51  42  71 SE5       30.20S
ROGERS         CLEAR     50  44  80 SE5       30.19S
HIGHFILL       CLEAR     48  42  80 CALM      30.18F
$$

ARZ004-005-016-180600-
NORTH CENTRAL ARKANSAS

CITY           SKY/WX    TMP DP  RH WIND       PRES   REMARKS
BATESVILLE     CLEAR     47  43  86 CALM      30.23S
FLIPPIN        CLEAR     45  41  86 CALM      30.21F
MTN HOME       CLEAR     51  42  71 S5        30.20S
$$

ARZ040-041-180600-
WEST CENTRAL ARKANSAS

CITY           SKY/WX    TMP DP  RH WIND       PRES   REMARKS
MENA           CLEAR     43  43 100 CALM      30.21S
MOUNT IDA      CLEAR     45  42  89 CALM      30.18
$$

ARZ009-017-025-026-028-180600-
NORTHEAST ARKANSAS

CITY           SKY/WX    TMP DP  RH WIND       PRES   REMARKS
CORNING        FAIR      50  45  81 SE3       30.23S
JONESBORO      CLEAR     47  44  90 CALM      30.23S
NEWPORT        CLEAR     47  43  86 CALM      30.23S
WALNUT RIDGE   CLEAR     46  42  86 CALM      30.23S
BLYTHEVILLE    CLEAR     49  47  93 CALM      30.23F
$$

ARZ022-023-033-042-044-180600-
CENTRAL ARKANSAS

CITY           SKY/WX    TMP DP  RH WIND       PRES   REMARKS
LITTLE ROCK    CLEAR     50  47  89 CALM      30.22F
N LITTLE ROCK    N/A     54  42  65 CALM      30.24S
JACKSONVILLE   CLEAR     45  41  87 CALM      30.21S
SEARCY         CLEAR     45  45 100 CALM      30.23S
HOT SPRINGS    CLEAR     50  45  83 CALM      30.22S
RUSSELLVILLE   CLEAR     47  45  93 CALM      30.20F
CLINTON        FAIR      43  43 100 CALM      30.23F
$$

ARZ036-180600-
EAST ARKANSAS

CITY           SKY/WX    TMP DP  RH WIND       PRES   REMARKS
WEST MEMPHIS   CLEAR     49  48  97 CALM      30.22F
$$

ARZ050-053-066-070-073-180600-
SOUTHWEST ARKANSAS

CITY           SKY/WX    TMP DP  RH WIND       PRES   REMARKS
ARKADELPHIA    FAIR      43  42  97 CALM      30.23R
CAMDEN         CLEAR     45  41  87 MISG      30.21S
TEXARKANA      CLEAR     58  43  57 SE6       30.20S
EL DORADO      CLEAR     47  45  93 CALM      30.21S
DE QUEEN       CLEAR     44  44 100 CALM      30.18F
$$

ARZ056-057-069-180600-
SOUTHEAST ARKANSAS

CITY           SKY/WX    TMP DP  RH WIND       PRES   REMARKS
PINE BLUFF     CLEAR     47  44  90 CALM      30.22S
STUTTGART      CLEAR     53  45  74 CALM      30.23S
MONTICELLO     CLEAR     49  46  90 CALM      30.22S

$$





USA.gov is the U.S. government's official web portal to all federal, state and local government web resources and services.